Regional Weather Roundup
Issued by NWS San Diego, CA

Home | Current Version | Previous Version | Text Only | Print | Product List | Glossary On
Versions: 1 2 3 4 5 6 7 8 9 10 11 12 13 14 15 16 17 18 19 20 21 22 23 24 25 26 27 28 29 30 31 32 33 34 35 36 37 38 39 40 41 42 43 44 45 46 47 48 49 50
849
ASUS46 KSGX 191811
RWRSGX

SAN DIEGO HOURLY WEATHER ROUNDUP
NATIONAL WEATHER SERVICE SAN DIEGO CA
1000 AM PST SUN NOV 19 2017

NOTE: "FAIR" INDICATES FEW OR NO CLOUDS BELOW 12,000 FEET WITH NO
SIGNIFICANT WEATHER AND/OR OBSTRUCTIONS TO VISIBILITY.

CAZ042-043-060-061-PZZ750-775-191900-

GREATER SAN DIEGO AREA

CITY           SKY/WX    TMP DP  RH WIND       PRES   REMARKS
SAN DIEGO AP   PTSUNNY   69  41  36 W3        30.07S
NATIONAL CITY    N/A     69  43  39 CALM      30.08F
CHULA VISTA      N/A     70  48  44 E1        29.98S
IMPERIAL BEACH SUNNY     70  40  33 N6        30.06S
BROWN FIELD    SUNNY     71  37  28 CALM      30.05F
MIRAMAR MCAS   MOSUNNY   74  35  24 NW3       30.06S
MONTGOMERY FLD SUNNY     72  37  28 CALM      30.06S
GILLESPIE FLD  SUNNY     63  37  39 CALM      30.05F

$$

NORTH SAN DIEGO COUNTY

CITY           SKY/WX    TMP DP  RH WIND       PRES   REMARKS
CAMP PENDLETON MOSUNNY   72  31  22 CALM      30.05F
OCEANSIDE AP   MOSUNNY   70  33  25 E3        30.05F
OCEANSIDE HBR    N/A     68  44  41 S1        30.07F
VISTA            N/A     70  35  27 NE1       30.03F
CARLSBAD       MOSUNNY   69  33  26 VRB3      30.05S
DEL MAR          N/A     64  52  65 CALM      30.07F
LA JOLLA SCRIP   N/A     65  50  57 W2        30.05F
FALLBROOK        N/A     69  32  24 NE2       30.05F
ESCONDIDO        N/A     70  35  27 S1        30.07F
SAN MARCOS       N/A     69  33  27 CALM      30.07F

$$

EAST SAN DIEGO COUNTY

CITY           SKY/WX    TMP DP  RH WIND       PRES   REMARKS
RAMONA         SUNNY     73 N/A N/A SE3       30.06F
SANTEE LAKES     N/A     63  42  45 CALM      30.05F
LA MESA          N/A     68  40  36 CALM      30.00F
JAMUL            N/A     71  39  30 CALM      30.05F
DESCANSO N       N/A     66  31  27 E3        30.03F
MT. LAGUNA OBS   N/A     59  -8   6 SE6       29.98S
CAMPO            N/A     67  10  11 E17       30.06F

$$

ORANGE COUNTY AND THE LOS ANGELES BASIN

CITY           SKY/WX    TMP DP  RH WIND       PRES   REMARKS
JOHN WAYNE AP  PTSUNNY   68  53  58 SW5       30.06S
LAGUNA BEACH     N/A     65  54  68 CALM      30.02S
LAKE FOREST FR   N/A     69  30  23 CALM      29.95S
HUNTINGTON BCH   N/A     64  59  85 NW2       30.08S
LOS ALAMITOS   MOSUNNY   66  53  63 CALM      30.06F
FULLERTON      PTSUNNY   65  37  35 CALM      30.06S
LONG BEACH     SUNNY     67  38  34 CALM      30.07S
L.A. AP        MOSUNNY   72  26  18 N3        30.07F
L.A. DOWNTOWN  SUNNY     72  26  18 CALM      30.06F

$$

THE INLAND EMPIRE

CITY           SKY/WX    TMP DP  RH WIND       PRES   REMARKS
CORONA         SUNNY     73  11   9 E10       30.08F
CHINO          MOSUNNY   70  30  22 N3        30.09F
ONTARIO        PTSUNNY   65  19  17 W6        30.08F
SAN BERNARDINO MOSUNNY   70  14  11 CALM      30.09F
RIVERSIDE AP   SUNNY     72  13  10 E7        30.08F
MORENO VALLEY    N/A     67  29  23 CALM      28.21S
MARCH ARB      SUNNY     67  11  11 NE3       30.09F
HORSETHIEF CYN   N/A     71  12  10 CALM      30.09F
PERRIS           N/A     66  28  24 NW1         N/A
HEMET EAST       N/A     63  24  22 CALM      30.12F
FRENCH VALLEY  FAIR      64  27  24 N5        30.08F
TEMECULA         N/A     60  41  49 W1        30.13F

$$

SAN BERNARDINO AND RIVERSIDE COUNTY MOUNTAINS

CITY           SKY/WX    TMP DP  RH WIND       PRES   REMARKS
BIG BEAR AP    SUNNY     50   0  12 CALM      30.24F
ANGELUS OAKS     N/A     58  15  18 CALM      30.07F

$$

SOUTHERN DESERT INCLUDING THE COACHELLA VALLEY

CITY           SKY/WX    TMP DP  RH WIND       PRES   REMARKS
PALM SPRINGS   SUNNY     73  11   9 CALM      30.12F
THOUSAND PALMS   N/A     69  20  15 N1        30.09F
PALM DESERT      N/A     72  28  19 CALM        N/A
THERMAL        SUNNY     71  18  13 N6        30.09F
BLYTHE         SUNNY     62  10  13 S3        30.13F
IMPERIAL AP    SUNNY     70  23  17 NW8       30.09F
EL CENTRO NAS  SUNNY     70  20  15 NW8       30.12F
YUMA AZ        SUNNY     70  12  10 N17       30.08S
MEXICALI       SUNNY     68  19  15 NW10      30.10

$$

UPPER DESERT

CITY           SKY/WX    TMP DP  RH WIND       PRES   REMARKS
VICTORVILLE AP MOSUNNY   50  10  20 CALM      30.19F
HESPERIA         N/A     54  19  25 CALM      30.35F
PALMDALE       SUNNY     50  13  22 NW8       30.21S
LANCASTER      SUNNY     50  14  23 NW3       30.22F
EDWARDS AFB    PTSUNNY   48  10  21 CALM      30.20S
DAGGETT        SUNNY     52  12  20 W3        30.20F
29 PALMS N     SUNNY     55   5  13 CALM      30.24F
NEEDLES        SUNNY     63  17  17 N12       30.17S

$$

REGIONAL REPORTS

CITY           SKY/WX    TMP DP  RH WIND       PRES   REMARKS
SANTA BARBARA  PTSUNNY   62  55  77 SE9       30.09R
SANDBERG       SUNNY     56   9  15 NE14G24   30.20R
LAS VEGAS NV   MOSUNNY   55  10  16 CALM      30.21F
PHOENIX AZ     SUNNY     73  20  13 E15       30.06F
TIJUANA        PTSUNNY   70  34  26 CALM      30.08
ENSENADA NW      N/A     65  32  29 CALM      29.98F

$$

OFFSHORE ISLANDS

CITY           SKY/WX    TMP DP  RH WIND       PRES   REMARKS
CATALINA ARPT  SUNNY     67  39  35 SW3       30.10S
SAN NICOLAS IS MOSUNNY   62  32  32 NW15      30.10S

$$

MARINE AND OFFSHORE BUOY REPORTS

STATION/POSITION SKY/WX   TEMP    WIND        PRES    VSBY  SWELL
                          AIR SEA DIR/SP/G                  HT/PER/DIR
                          (F)     (DEG/KT/KT) (MB)    (MI)  (FT/S/D)
TANNER BANKS               61 63  160/ 12/ 14 1018.8S         5/340/ 6
S CLEMENTE BASIN           64 65  300/ 10/ 12 1018.1R         3/280/ 6
SAN NICOLAS IS.               62                N/A           3/260/13
SO. S. ROSA ISLA           58 61  310/ 16/ 19 1018.9S         3/310/10
W. S. BARBARA CH           57 60  310/ 17/ 19 1018.9R         3/290/10
M. S. BARBARA CH           60 60  220/  6/  8 1019.4F         2/250/ 5
S. MONICA BASIN               65   CALM  /  2 1018.2R         2/270/ 5
S PEDRO CHANNEL               62                N/A           2/240/11
CMP PENDLETON NS              61                N/A           2/230/13
OCEANSIDE OFFSHR              63                N/A           2/230/18
TORREY PINES OTR              65                N/A           2/210/11
SAN DIEGO BAY                 67              1018.4S
POINT LOMA SOUTH              63                N/A           2/230/13

$$





USA.gov is the U.S. government's official web portal to all federal, state and local government web resources and services.